Flag for Finland Weather past 2 weeks in Lappeenranta, Finland

Now
45 °F

Passing clouds.


Feels Like: 40 °F
Forecast: 30 / 49 °F
Wind: 9 mph from Northwest

Location: Lappeenranta


UV Index: 0 (Low)

Visibility: N/A


Pressure: 30.15 "Hg

Humidity: 34%

Dew point: 18 °F

Location of LappeenrantaLocation

Historic Weather in Lappeenranta

°F

Lappeenranta temperature yesterday

Maximum temperature yesterday: 45 °F (at 2:50 PM)
Minimum temperature yesterday: 32 °F (at 4:20 AM)
Average temperature yesterday: 39 °F

Past Weeks' High & Low Weather Summary

 TemperatureHumidityPressure
High50 °F (Apr 5, 3:20 PM)100% (Apr 7, 3:20 AM)30.36 "Hg (Apr 7, 3:20 AM)
Low21 °F (Apr 2, 5:50 AM)24% (Apr 10, 3:50 PM)29.36 "Hg (Apr 14, 5:20 AM)
Average35 °F66%29.85 "Hg
* Reported Apr 1 11:20 AM — Apr 16 11:50 AM, Lappeenranta, Weather by CustomWeather, © 2014

Note: Actual official high and low records may vary slightly from our data, if they occured in-between our weather recording intervals... More about our weather records

Advertising

Historic Weather Conditions — Data for Previous 24 hours

 ConditionsComfort  
Time TempWeatherWind HumidityBarometerVisibility
11:50 AM
Apr 16
43 °FPassing clouds.10 mph36%30.12 "HgN/A
11:20 AM41 °FPassing clouds.8 mph39%30.12 "HgN/A
10:50 AM41 °FPassing clouds.8 mph42%30.12 "HgN/A
10:20 AM39 °FPassing clouds.9 mph48%30.12 "HgN/A
9:50 AM39 °FPassing clouds.8 mph48%30.12 "HgN/A
9:20 AM37 °FPassing clouds.8 mph52%30.12 "HgN/A
8:50 AM36 °FPassing clouds.8 mph56%30.09 "HgN/A
8:20 AM34 °FPassing clouds.7 mph60%30.09 "HgN/A
7:50 AM34 °FPassing clouds.6 mph60%30.09 "HgN/A
7:20 AM34 °FPassing clouds.7 mph60%30.09 "HgN/A
6:50 AM32 °FPassing clouds.8 mph64%30.07 "HgN/A
6:20 AM32 °FPassing clouds.6 mph64%30.07 "HgN/A
5:50 AM32 °FPassing clouds.7 mph64%30.04 "HgN/A
5:20 AM32 °FPassing clouds.7 mph64%30.04 "HgN/A
4:50 AM34 °FPassing clouds.8 mph60%30.04 "HgN/A
4:20 AM34 °FPassing clouds.7 mph60%30.01 "HgN/A
3:50 AM36 °FPassing clouds.7 mph56%30.01 "HgN/A
1:50 AM36 °FPassing clouds.8 mph60%29.98 "HgN/A
1:20 AM37 °FPassing clouds.9 mph65%29.98 "HgN/A
12:50 AM37 °FPassing clouds.8 mph70%29.98 "HgN/A
12:20 AM37 °FPassing clouds.8 mph70%29.95 "HgN/A
11:50 PM
Apr 15
39 °FPassing clouds.8 mph70%29.95 "HgN/A
11:20 PM39 °FPassing clouds.7 mph75%29.95 "HgN/A
10:50 PM39 °FPartly cloudy.6 mph81%29.95 "HgN/A
10:20 PM39 °FOvercast.5 mph87%29.92 "HgN/A
9:50 PM39 °FPassing clouds.5 mph87%29.92 "HgN/A
9:20 PM39 °FPartly sunny.7 mph81%29.92 "HgN/A
8:50 PM39 °FSprinkles. Cloudy.7 mph87%29.92 "HgN/A
8:20 PM41 °FMostly cloudy.5 mph81%29.89 "HgN/A
7:50 PM41 °FOvercast.6 mph81%29.86 "HgN/A
7:20 PM41 °FPassing clouds.6 mph81%29.86 "HgN/A
6:50 PM41 °FBroken clouds.8 mph76%29.83 "HgN/A
6:20 PM43 °FPassing clouds.7 mph71%29.83 "HgN/A
5:50 PM45 °FPartly sunny.7 mph71%29.80 "HgN/A
5:20 PM45 °FOvercast.7 mph71%29.80 "HgN/A
4:50 PM45 °FMostly cloudy.8 mph71%29.80 "HgN/A
4:20 PM45 °FMostly cloudy.7 mph71%29.77 "HgN/A
3:50 PM45 °FMore clouds than sun.7 mph71%29.77 "HgN/A
3:20 PM45 °FPartly sunny.7 mph71%29.77 "HgN/A
2:50 PM45 °FPartly sunny.6 mph76%29.74 "HgN/A
2:20 PM43 °FPartly sunny.3 mph81%29.74 "HgN/A
1:50 PM43 °FCloudy.3 mph81%29.74 "HgN/A
1:20 PM41 °FBroken clouds.5 mph93%29.71 "HgN/A
Weather by CustomWeather, © 2014

See weather overview